Regional Weather Roundup
Issued by NWS Cleveland, OH

Home | Current Version | Previous Version | Text Only | Print | Product List | Glossary Off
Versions: 1 2 3 4 5 6 7 8 9 10 11 12 13 14 15 16 17 18 19 20 21 22 23 24 25 26 27 28 29 30 31 32 33 34 35 36 37 38 39 40 41 42 43 44 45 46 47 48 49 50

000
ASUS41 KCLE 240310
RWRCLE
OHIO REGIONAL WEATHER ROUNDUP
NATIONAL WEATHER SERVICE WILMINGTON, OH
1000 PM EST THU FEB 23 2017

NOTE: "FAIR" INDICATES FEW OR NO CLOUDS BELOW 12,000 FEET WITH NO
SIGNIFICANT WEATHER AND/OR OBSTRUCTIONS TO VISIBILITY.

OHZ001>008-015>018-024>027-034-035-043-044-240400-
   NORTHWEST OHIO

CITY           SKY/WX    TMP DP  RH WIND       PRES   REMARKS
DEFIANCE       CLOUDY    56  44  64 NE5       29.75R
FINDLAY        MOCLDY    59  52  77 SE8       29.75F
TOLEDO EXPRESS CLOUDY    48  44  86 E18       29.78R
TOLEDO EXEC    CLOUDY    47  44  90 NE13      29.80S
LIMA           CLOUDY    58  55  90 SE8       29.76S
$$

OHZ009>014-019>023-028>033-038-089-240400-
   NORTHEAST OHIO

CITY           SKY/WX    TMP DP  RH WIND       PRES   REMARKS
CLE-HOPKINS    CLOUDY    53  45  74 NE10      29.81F
CLE-LAKEFRONT  FAIR      43  40  89 NE12      29.79F FOG
CUY CO. ARPT   PTCLDY    54  52  94 VRB7      29.82R
LORAIN-ELYRIA  FAIR      56  48  74 E12       29.80S
ASHTABULA      FAIR      51  50  96 CALM      29.83S
AKRON-CANTON   CLOUDY    60  52  74 SE5       29.81F
WOOSTER        CLOUDY    55  52  89 CALM      29.81R
MANSFIELD      CLOUDY    57  55  93 E6        29.80S
YOUNGSTOWN     CLOUDY    57  51  80 E6        29.83S
$$

OHZ042-051>053-060>062-070>072-077>081-240400-
  SOUTHWEST OHIO

CITY           SKY/WX    TMP DP  RH WIND       PRES   REMARKS
CINC-COVINGTON FAIR      63  57  81 S13       29.76S
CINC-LUNKEN    CLOUDY    64  57  78 S7        29.77R
HAMILTON       MOCLDY    64  57  78 CALM      29.76S
DAYTON         MOCLDY    60  54  80 S7        29.77R
WRIGHT-PAT AFB CLOUDY    61  57  88 SE3       29.77R
DAYTON GENERAL CLOUDY    62  56  80 S6        29.76R
WILMINGTON     CLOUDY    60  56  86 S6        29.78R
$$

OHZ036-037-039>041-045>050-054>059-063>069-073>076-082>088-240400-
  CENTRAL AND SOUTHEAST OHIO

CITY           SKY/WX    TMP DP  RH WIND       PRES   REMARKS
COLUMBUS       CLOUDY    61  58  90 SE6       29.78F
OSU AIRPORT    CLOUDY    61  57  87 S6        29.78S
BOLTON FIELD   CLOUDY    59  56  87 S3        29.79S
RICKENBACK AFB CLOUDY    60  55  83 SE5       29.78S
NEWARK         FAIR      59  54  83 SE3       29.79S
MARION         MOCLDY    57  54  89 SE7       29.78F
LANCASTER      MOCLDY    64  55  72 S6        29.80S
ZANESVILLE     MOCLDY    58  55  90 S5        29.81S
NEW PHILLY     CLOUDY    57  57 100 SE5       29.82F
$$



USA.gov is the U.S. government's official web portal to all federal, state and local government web resources and services.